[[{"header":{"parameterUnit":"m.s-1","parameterCategory":1,"la1":30.2991,"la2":30.254,"lo1":-89.0895,"lo2":-89.0444,"dy":0.0017,"dx":0.0017,"nx":28,"ny":28,"refTime":"2024-09-27T09:00:00:Z","depth":0,"parameterNumber":2,"parameterNumberName":"U-component_of_WINDS"},"data":[0,0,0,0,0,0,0,0,0,0,0,0,0,0,0,0,0,0,0,0,0,0,0,0,0,0,0,0,0,0,0,0,0,0,0,0,0,0,0,0,0,0,0,0,0,0,0,0,0,0,0,0,0,0,0,0,0,0,4.6006,4.6008,0,4.6212,4.6214,4.6216,4.6173,4.6169,4.6165,4.6162,4.6376,4.6385,4.6394,0,0,0,0,0,0,0,0,0,0,0,0,0,4.5576,4.5584,4.6005,4.6008,4.6011,4.6211,4.6214,4.6217,4.6174,4.6169,4.6164,4.616,4.6373,4.6384,4.6395,0,0,0,0,0,0,0,0,0,0,0,0,0,4.577,4.5586,4.6005,4.6013,4.6016,4.6211,4.6214,4.6218,4.6175,4.6169,4.6163,4.6158,4.6369,4.6383,4.6397,4.6597,0,0,4.6439,4.6445,0,0,0,0,0,0,0,0,4.5759,4.5786,4.6009,4.6013,4.6016,4.6161,4.6141,4.6345,4.6176,4.6115,4.6162,4.6155,4.6309,4.6328,4.6379,4.6607,4.6616,4.644,4.6449,4.6455,4.6459,0,0,0,0,0,0,0,4.5746,4.5777,4.6087,4.6013,4.6017,4.6007,4.6028,4.618,4.6242,4.612,4.6117,4.6142,4.631,4.6366,4.6384,4.662,4.644,4.6452,4.6461,4.6466,4.702,4.7026,0,0,0,0,0,0,4.5729,4.5766,4.6081,4.6093,4.5871,4.6019,4.6043,4.612,4.624,4.6253,4.6146,4.6139,4.6345,4.6368,4.6391,4.6631,4.6455,4.6468,4.6476,4.7013,4.7021,4.7028,0,0,0,0,0,0,4.572,4.5757,4.6072,4.5929,4.5968,4.6033,4.612,4.6127,4.6183,4.626,4.6271,4.6192,4.6341,4.6372,4.6545,4.6638,4.6474,4.6487,4.7006,4.7016,4.7024,4.7115,0,0,0,0,0,0,4.5708,4.5754,4.5831,4.5931,4.5976,4.6223,4.6126,4.6136,4.6207,4.6199,4.6306,4.6318,4.6339,4.6525,4.6559,4.6654,4.6497,4.6998,4.701,4.7021,4.7104,4.7126,4.7145,0,0,0,0,0,4.5692,4.585,4.5835,4.5873,4.6073,4.6228,4.6254,4.6274,4.6214,4.6292,4.6341,4.6314,4.6623,4.6543,4.6581,4.6682,4.6992,4.7007,4.702,4.7094,4.7122,4.7145,0,0,0,0,0,0,4.5761,4.5863,4.5848,4.6042,4.6127,4.6221,4.6319,4.6303,4.6408,4.6396,4.6418,4.6442,4.6619,4.6668,4.6577,4.6881,4.6799,4.6822,4.6842,4.6869,4.6889,4.6872,4.6509,0,0,0,0,0,4.5798,4.5915,4.5998,4.6161,4.6204,4.6255,4.6323,4.6331,4.642,4.6456,4.6518,4.6606,4.6722,4.6798,4.691,4.7111,4.7133,4.7199,4.722,4.7237,4.7256,4.7363,4.7393,4.7075,4.7075,4.7074,0,0,4.5877,4.5947,4.602,4.6177,4.6243,4.6363,4.6285,4.6416,4.6505,4.6476,4.6643,4.6692,4.6791,4.6978,4.7064,4.7025,4.7348,4.7255,4.7268,4.7278,4.7381,4.7411,4.7437,4.7084,4.7083,4.7081,0,0,4.6081,4.6147,4.6288,4.6356,4.6457,4.6489,4.6523,4.662,4.665,4.6817,4.6797,4.6904,4.7105,4.7175,4.7238,4.7467,4.7446,4.7503,4.7611,4.7716,4.774,4.7763,4.7842,4.787,4.7522,4.7522,4.7522,0,4.6166,4.6346,4.6364,4.6496,4.6565,4.6542,4.6685,4.6751,4.6884,4.6932,4.6886,4.7135,4.7201,4.7403,4.7459,4.7511,4.7549,4.749,4.7735,4.7758,4.7779,4.7855,4.7885,4.7528,4.7528,4.7527,4.7526,0,4.6444,4.6569,4.6672,4.6798,4.6879,4.7016,4.7055,4.7134,4.7135,4.7172,4.7342,4.742,4.7545,4.7594,4.7598,4.7797,4.7769,4.773,4.7647,4.7815,4.7886,4.7916,4.7537,4.7535,4.7533,4.7531,0,0,4.6697,4.683,4.6867,4.6923,4.7032,4.7129,4.7265,4.7386,4.7453,4.7546,4.7659,4.7828,4.7791,4.7862,4.7873,4.7965,4.8138,4.7914,4.7917,4.7951,4.8359,4.8387,4.842,4.8125,4.8131,4.8136,4.835,0,4.6909,4.7147,4.7166,4.7381,4.7495,4.7475,4.7593,4.7672,4.771,4.7813,4.7855,4.7974,4.7918,4.796,4.805,4.8098,4.822,4.8083,4.823,4.8235,4.8203,4.8458,4.8488,4.8686,4.8378,4.8383,4.8387,0,4.7189,4.7287,4.7512,4.7602,4.7651,4.7756,4.7867,4.7967,4.8056,4.8077,4.8155,4.8153,4.8292,4.8205,4.8396,4.8303,4.8364,4.8397,4.8405,4.8418,4.8319,4.8475,4.8751,4.8779,4.8431,4.8428,4.8425,0,4.7347,4.7536,4.7694,4.7743,4.7853,4.7927,4.7977,4.806,4.8131,4.8229,4.8275,4.8389,4.845,4.8538,4.8567,4.8502,4.8756,4.8673,4.8776,4.8776,4.8829,4.8825,4.9116,4.8873,4.8873,4.8872,4.8872,0,4.7581,4.7718,4.7766,4.7863,4.8016,4.8037,4.8189,4.8234,4.8309,4.8414,4.8405,4.8504,4.8536,4.8641,4.8665,4.8818,4.8847,4.8867,4.8871,4.8866,4.8863,4.8905,4.8891,4.888,4.8878,4.8877,4.8875,0,4.7783,4.782,4.7991,4.808,4.8106,4.8215,4.8291,4.8385,4.842,4.8554,4.8586,4.8642,4.8765,4.8802,4.8951,4.8966,4.9145,4.9138,4.9114,4.9114,4.9214,4.9203,4.9541,4.9585,4.9315,4.9318,4.932,0,4.7928,4.8033,4.8133,4.8202,4.8254,4.8366,4.8437,4.8462,4.8537,4.8645,4.8725,4.8846,4.8944,4.9141,4.9195,4.9308,4.9302,4.9412,4.9319,4.931,4.9301,4.9293,4.9302,4.9429,4.9432,4.9434,4.9436,0,4.8181,4.8194,4.8296,4.8406,4.8491,4.8578,4.8663,4.872,4.8757,4.8842,4.8966,4.9041,4.9191,4.9311,4.9425,4.9476,4.9462,4.9465,4.9495,4.949,4.947,4.948,4.9159,4.9457,4.9455,4.9454,4.9452,4.9452,4.8358,4.8449,4.8532,4.8647,4.8712,4.8791,4.8882,4.8928,4.9031,4.9154,4.9163,4.9297,4.9382,4.9533,4.959,4.9695,4.9663,4.9707,4.9717,4.9727,4.9734,4.9456,4.9717,4.9716,4.9716,4.9715,4.9715,0,4.8608,4.866,4.8765,4.8881,4.8971,4.8949,4.9041,4.9117,4.9235,4.9315,4.941,4.9552,4.9667,4.973,4.9845,4.9917,4.9913,4.9946,4.994,4.9951,4.9757,4.9719,4.9947,4.9947,4.9946,4.9946,4.9946,4.9946,4.8748,4.89,4.8923,4.9107,4.9159,4.9288,4.9342,4.9414,4.9477,4.9635,4.973,4.977,4.9843,4.9962,5.0067,5.0082,5.0124,5.016,5.0172,4.9989,4.9965,4.9942,4.9906,5.017,5.017,5.0357,5.0358,5.036]},{"header":{"parameterUnit":"m.s-1","parameterCategory":1,"la1":30.2991,"la2":30.254,"lo1":-89.0895,"lo2":-89.0444,"dy":0.0017,"dx":0.0017,"nx":28,"ny":28,"refTime":"2024-09-27T09:00:00:Z","depth":0,"parameterNumber":3,"parameterNumberName":"V-component_of_WINDS"},"data":[0,0,0,0,0,0,0,0,0,0,0,0,0,0,0,0,0,0,0,0,0,0,0,0,0,0,0,0,0,0,0,0,0,0,0,0,0,0,0,0,0,0,0,0,0,0,0,0,0,0,0,0,0,0,0,0,0,0,1.845,1.8451,0,1.8542,1.8543,1.8544,1.851,1.8508,1.8505,1.8503,1.8601,1.8606,1.861,0,0,0,0,0,0,0,0,0,0,0,0,0,1.8248,1.8251,1.845,1.8451,1.8453,1.8542,1.8543,1.8545,1.851,1.8507,1.8505,1.8502,1.86,1.8605,1.8611,0,0,0,0,0,0,0,0,0,0,0,0,0,1.8337,1.8253,1.845,1.8446,1.8447,1.8542,1.8543,1.8545,1.8511,1.8507,1.8504,1.8501,1.8598,1.8605,1.8611,1.8717,0,0,1.8632,1.8635,0,0,0,0,0,0,0,0,1.8332,1.8345,1.8445,1.8446,1.8447,1.8511,1.8508,1.8603,1.8511,1.8486,1.8503,1.85,1.8574,1.8583,1.8607,1.8722,1.8726,1.8633,1.8637,1.864,1.8642,0,0,0,0,0,0,0,1.8326,1.8341,1.8487,1.8447,1.8448,1.844,1.845,1.8525,1.8547,1.8488,1.8486,1.8497,1.8574,1.86,1.8609,1.8727,1.8633,1.8639,1.8643,1.8646,1.8933,1.8937,0,0,0,0,0,0,1.8319,1.8336,1.8484,1.8489,1.8381,1.8447,1.8457,1.8494,1.8546,1.8551,1.85,1.8495,1.859,1.8601,1.8612,1.874,1.864,1.8646,1.865,1.893,1.8934,1.8938,0,0,0,0,0,0,1.8315,1.8333,1.848,1.8412,1.843,1.8454,1.8495,1.8497,1.8524,1.8555,1.8559,1.8523,1.8588,1.8603,1.8691,1.8743,1.8649,1.8656,1.8926,1.8931,1.8936,1.8995,0,0,0,0,0,0,1.8309,1.8331,1.8371,1.8413,1.8434,1.8557,1.8498,1.8501,1.8535,1.853,1.8577,1.8582,1.8587,1.8681,1.8698,1.875,1.8661,1.8921,1.8928,1.8934,1.8989,1.9002,1.9013,0,0,0,0,0,1.8302,1.8385,1.8373,1.8392,1.8484,1.856,1.8572,1.8574,1.854,1.858,1.86,1.8581,1.8734,1.869,1.8709,1.8764,1.8918,1.8926,1.8934,1.8983,1.8999,1.9013,0,0,0,0,0,0,1.835,1.8391,1.8378,1.8477,1.8515,1.8554,1.8605,1.8591,1.8641,1.8634,1.8637,1.8648,1.8739,1.876,1.8711,1.8869,1.8821,1.8833,1.8852,1.8868,1.8879,1.8873,1.8667,0,0,0,0,0,1.8372,1.8429,1.8462,1.8546,1.8565,1.8582,1.8615,1.8614,1.8654,1.867,1.8696,1.8737,1.8794,1.8832,1.8886,1.8991,1.9001,1.9038,1.9051,1.906,1.9071,1.9129,1.9146,1.8964,1.8964,1.8964,0,0,1.8419,1.8448,1.8484,1.8556,1.8586,1.8645,1.8596,1.8662,1.8706,1.868,1.8765,1.8786,1.8831,1.8928,1.8972,1.8949,1.9123,1.907,1.9078,1.9084,1.9139,1.9156,1.9171,1.8969,1.8968,1.8967,0,0,1.8534,1.8561,1.8634,1.8664,1.8708,1.8719,1.8736,1.8777,1.8789,1.8874,1.8856,1.8909,1.9008,1.904,1.907,1.9196,1.9181,1.9214,1.9278,1.9334,1.9348,1.9361,1.9407,1.9423,1.9224,1.9225,1.9225,0,1.8587,1.8675,1.8674,1.8741,1.8773,1.8751,1.8825,1.8855,1.8915,1.8939,1.8911,1.9034,1.9063,1.9167,1.9198,1.9222,1.9243,1.9209,1.9346,1.9359,1.9371,1.9414,1.9431,1.9228,1.9228,1.9228,1.9227,0,1.8737,1.8799,1.8853,1.891,1.8949,1.9019,1.903,1.9069,1.9064,1.9077,1.9164,1.9197,1.9258,1.9282,1.9279,1.9387,1.9371,1.9345,1.9296,1.9392,1.9433,1.945,1.9234,1.9233,1.9231,1.923,0,0,1.8888,1.8942,1.8962,1.8988,1.9034,1.9082,1.9152,1.9209,1.9243,1.9285,1.9344,1.9427,1.9403,1.9437,1.9436,1.9485,1.9584,1.9453,1.9454,1.9477,1.9705,1.9725,1.9744,1.9573,1.9576,1.9578,1.9702,0,1.9007,1.9127,1.9128,1.924,1.9297,1.9275,1.9336,1.9371,1.9385,1.9437,1.9452,1.9511,1.9475,1.9495,1.9542,1.9562,1.963,1.9553,1.9629,1.9631,1.9619,1.9766,1.9787,1.9902,1.9718,1.972,1.9722,0,1.9163,1.9208,1.9325,1.9363,1.9387,1.9441,1.9494,1.9543,1.9583,1.9589,1.9626,1.9618,1.9689,1.9637,1.9736,1.9684,1.9715,1.9729,1.9733,1.9742,1.9684,1.9779,1.9939,1.9956,1.9747,1.9745,1.9744,0,1.9261,1.9352,1.9433,1.9456,1.9502,1.954,1.9561,1.9598,1.9633,1.9679,1.9702,1.9756,1.9786,1.9829,1.9836,1.9797,1.9936,1.9884,1.9944,1.9944,1.9975,1.9974,2.0143,1.9994,1.9993,1.9993,1.9993,0,1.9395,1.9468,1.9478,1.9529,1.9609,1.9609,1.9689,1.9707,1.974,1.9794,1.9779,1.983,1.9835,1.9889,1.9895,1.9976,1.9989,1.9998,1.9999,2.0,1.9999,2.0021,2.0014,1.9998,1.9997,1.9996,1.9995,0,1.952,1.9529,1.9617,1.9652,1.9663,1.9721,1.9752,1.98,1.9812,1.988,1.9897,1.9916,1.9977,1.9988,2.0061,2.0065,2.0162,2.0154,2.0148,2.0148,2.0208,2.0202,2.0399,2.0425,2.0257,2.0258,2.026,0,1.9605,1.966,1.9701,1.9735,1.9758,1.9814,1.9849,1.985,1.9887,1.9936,1.9979,2.0039,2.0087,2.0186,2.0207,2.0263,2.0257,2.0322,2.0266,2.0265,2.0259,2.0256,2.0262,2.0334,2.0335,2.0337,2.0338,0,1.9756,1.9758,1.9808,1.9859,1.9901,1.9942,1.9981,2.001,2.0017,2.006,2.0122,2.0159,2.0232,2.0292,2.0347,2.037,2.0356,2.0355,2.0372,2.0375,2.0369,2.0374,2.0179,2.0351,2.035,2.0349,2.0348,2.0348,1.9864,1.9912,1.9948,2.0004,2.0033,2.007,2.0117,2.0134,2.0185,2.0244,2.0242,2.031,2.0349,2.0421,2.0447,2.0501,2.048,2.0505,2.0511,2.0518,2.0524,2.0359,2.0511,2.0511,2.051,2.051,2.051,0,2.0015,2.0036,2.0088,2.0142,2.0186,2.0167,2.0209,2.0248,2.0308,2.0344,2.0391,2.0462,2.0519,2.0544,2.0601,2.064,2.0635,2.0655,2.0652,2.0658,2.0538,2.0518,2.0658,2.0658,2.0658,2.0658,2.0657,2.0657,2.0098,2.0178,2.0184,2.0279,2.03,2.0366,2.0391,2.0425,2.0454,2.0534,2.0581,2.0596,2.0628,2.0687,2.0739,2.0745,2.0767,2.079,2.0793,2.0681,2.0666,2.0652,2.0633,2.0794,2.0795,2.0908,2.0909,2.091]}]]